Temp
-12 -11 -11 -11 -12 -12 -12 -12 -12 -12 -12 -12 -12 -12 -11 -11 -12 -11 -11 -12 -12 -12 -12 -12 -12 -12 -12 -12 -12 -12 -14 -13 -13 -13 -14 -14 -14 -14 -14 -13 -13 -13 -13 -13
-12 -11 -12 -12 -12 -12 -12 -12 -12 -12 -12 -12 -12 -11 -11 -11 -12 -12 -12 -12 -12 -12 -12 -12 -12 -12 -12 -12 -12 -13 -13 -13 -14 -14 -14 -14 -14 -14 -14 -14 -14 -14 -14 -14
-12 -11 -12 -12 -12 -12 -12 -12 -13 -12 -13 -12 -12 -11 -11 -12 -12 -12 -12 -12 -12 -13 -13 -13 -12 -12 -12 -12 -12 -12 -13 -14 -14 -14 -14 -14 -15 -14 -14 -14 -14 -14 -14 -14
-11 -12 -12 -13 -12 -13 -12 -14 -13 -13 -13 -12 -13 -11 -12 -13 -13 -12 -12 -12 -13 -13 -13 -13 -13 -13 -13 -12 -12 -13 -13 -13 -13 -14 -14 -15 -15 -15 -14 -14 -14 -14 -14 -14
-12 -12 -13 -13 -13 -13 -11 -14 -14 -14 -13 -13 -11 -14 -10 -13 -13 -14 -12 -11 -11 -12 -12 -12 -12 -12 -13 -13 -13 -13 -13 -13 -13 -13 -14 -15 -15 -14 -14 -14 -14 -15 -14 -14
-13 -14 -14 -13 -13 -13 -13 -14 -14 -14 -14 -14 -10 -14 -10 -14 -14 -14 -11 -11 -12 -12 -13 -12 -12 -12 -12 -13 -13 -13 -13 -13 -13 -13 -13 -14 -14 -14 -14 -14 -14 -14 -14 -14
-13 -15 -15 -15 -14 -14 -14 -14 -15 -15 -15 -13 -13 -14 -12 -14 -13 -13 -13 -12 -12 -12 -13 -13 -13 -14 -13 -13 -13 -13 -14 -13 -13 -14 -14 -14 -14 -14 -14 -14 -14 -14 -14 -15
-16 -16 -15 -15 -16 -16 -16 -16 -16 -15 -15 -15 -14 -14 -15 -14 -13 -13 -13 -13 -13 -13 -14 -14 -14 -14 -13 -13 -13 -13 -14 -14 -14 -14 -14 -14 -14 -14 -14 -14 -14 -14 -14 -14
-17 -17 -17 -17 -17 -17 -17 -17 -17 -17 -16 -16 -14 -14 -14 -14 -14 -14 -14 -14 -14 -13 -13 -14 -14 -14 -14 -14 -14 -14 -14 -14 -14 -14 -15 -15 -14 -14 -14 -14 -14 -14 -14 -14
-18 -18 -18 -17 -18 -18 -18 -18 -18 -18 -18 -17 -16 -15 -16 -15 -15 -15 -14 -14 -14 -14 -15 -15 -15 -15 -14 -14 -14 -14 -15 -14 -14 -14 -14 -14 -14 -14 -15 -14 -14 -14 -14 -14
-19 -19 -19 -18 -19 -19 -19 -18 -18 -18 -19 -18 -17 -17 -16 -16 -16 -15 -15 -15 -15 -15 -15 -15 -15 -15 -16 -16 -15 -15 -15 -15 -15 -16 -16 -15 -15 -15 -15 -15 -15 -14 -14 -14
-20 -20 -20 -20 -20 -20 -20 -20 -20 -20 -19 -18 -18 -17 -17 -17 -17 -16 -16 -16 -16 -16 -16 -16 -16 -16 -16 -16 -16 -16 -16 -15 -15 -15 -15 -15 -16 -16 -16 -15 -16 -15 -15 -15
-22 -21 -20 -20 -21 -22 -21 -21 -20 -20 -20 -19 -19 -18 -18 -18 -18 -16 -16 -16 -16 -17 -17 -17 -17 -17 -17 -17 -17 -17 -17 -17 -17 -17 -17 -17 -17 -16 -16 -16 -16 -16 -16 -16
-23 -23 -22 -21 -22 -23 -23 -22 -21 -21 -21 -20 -19 -18 -18 -18 -19 -19 -18 -18 -17 -17 -17 -17 -17 -17 -18 -17 -17 -17 -17 -18 -18 -17 -17 -17 -17 -17 -17 -17 -17 -17 -17 -17
-23 -23 -23 -22 -22 -23 -23 -22 -22 -22 -22 -21 -19 -20 -19 -18 -19 -20 -20 -19 -19 -18 -18 -17 -17 -17 -17 -17 -17 -17 -18 -18 -18 -17 -17 -17 -17 -17 -17 -17 -17 -18 -17 -17
-25 -24 -25 -24 -24 -24 -24 -23 -22 -22 -22 -22 -21 -20 -19 -20 -20 -19 -20 -20 -20 -20 -19 -19 -19 -19 -19 -19 -19 -19 -19 -19 -19 -19 -19 -18 -18 -18 -18 -17 -18 -18 -18 -18
-27 -26 -26 -26 -26 -27 -27 -23 -24 -24 -23 -25 -27 -24 -20 -20 -21 -21 -22 -21 -21 -21 -20 -20 -20 -19 -20 -19 -19 -20 -20 -20 -19 -19 -19 -19 -18 -18 -18 -18 -18 -18 -18 -18
-27 -27 -27 -27 -27 -28 -27 -27 -27 -27 -28 -28 -28 -25 -23 -24 -24 -24 -24 -22 -23 -23 -22 -22 -21 -21 -21 -21 -21 -20 -20 -20 -20 -19 -19 -19 -19 -19 -18 -18 -18 -18 -18 -18
-28 -28 -28 -28 -28 -28 -28 -26 -27 -29 -29 -28 -27 -28 -27 -25 -25 -25 -24 -25 -24 -24 -24 -23 -23 -22 -22 -22 -21 -21 -20 -20 -20 -20 -20 -19 -19 -19 -19 -19 -19 -19 -18 -18
-29 -29 -29 -29 -29 -28 -28 -27 -29 -28 -28 -27 -28 -29 -28 -28 -27 -25 -25 -25 -24 -24 -24 -24 -23 -23 -23 -22 -22 -22 -21 -21 -21 -21 -20 -20 -20 -20 -20 -20 -20 -20 -20 -21
-30 -30 -29 -29 -29 -29 -28 -29 -30 -30 -28 -28 -29 -29 -29 -27 -26 -25 -26 -26 -25 -25 -25 -25 -24 -24 -24 -23 -23 -23 -23 -22 -22 -22 -22 -21 -20 -20 -20 -21 -21 -21 -21 -21
-31 -30 -30 -30 -30 -29 -29 -29 -30 -30 -30 -28 -29 -30 -30 -28 -27 -26 -27 -27 -27 -25 -26 -26 -25 -25 -25 -24 -24 -24 -24 -23 -22 -22 -22 -23 -23 -22 -22 -22 -22 -22 -22 -21
-30 -31 -31 -30 -29 -29 -30 -30 -30 -30 -30 -29 -29 -29 -30 -29 -27 -27 -27 -27 -28 -27 -27 -27 -26 -26 -26 -26 -25 -25 -24 -24 -23 -23 -23 -23 -23 -23 -22 -21 -22 -22 -21 -21
-31 -32 -32 -31 -29 -30 -30 -30 -30 -30 -30 -29 -29 -29 -29 -28 -28 -28 -27 -28 -28 -28 -28 -27 -27 -27 -26 -26 -26 -25 -24 -24 -23 -23 -23 -23 -23 -23 -23 -23 -22 -23 -23 -23
-31 -31 -31 -30 -30 -30 -30 -30 -30 -30 -30 -30 -30 -30 -30 -29 -28 -28 -28 -28 -28 -28 -28 -27 -27 -27 -26 -26 -26 -25 -24 -24 -24 -24 -23 -23 -23 -23 -23 -23 -23 -23 -24 -24
-31 -30 -30 -29 -30 -29 -29 -29 -29 -30 -30 -30 -30 -30 -30 -29 -29 -29 -28 -28 -28 -28 -28 -28 -27 -27 -26 -26 -26 -25 -25 -25 -24 -24 -24 -24 -24 -24 -23 -24 -24 -24 -24 -25
Height
5744 5741 5738 5742 5741 5740 5739 5739 5737 5737 5739 5738 5732 5730 5728 5730 5730 5731 5735 5738 5739 5738 5739 5738 5739 5742 5742 5741 5747 5749 5747 5750 5751 5753 5753 5753 5752 5753 5752 5753 5755 5753 5754 5753
5735 5734 5731 5731 5731 5731 5730 5729 5729 5730 5729 5729 5724 5721 5719 5720 5721 5722 5722 5727 5729 5729 5726 5725 5728 5729 5732 5730 5734 5737 5737 5738 5740 5741 5742 5742 5741 5741 5742 5744 5744 5744 5744 5743
5722 5729 5722 5720 5722 5721 5720 5719 5719 5719 5718 5716 5714 5712 5711 5711 5711 5710 5714 5715 5716 5715 5715 5714 5714 5719 5719 5720 5722 5723 5725 5727 5728 5729 5729 5730 5730 5731 5732 5734 5733 5733 5733 5733
5711 5712 5711 5711 5710 5707 5710 5709 5708 5707 5704 5702 5705 5698 5704 5702 5700 5700 5704 5704 5702 5704 5706 5705 5701 5706 5709 5709 5708 5712 5713 5715 5716 5716 5717 5720 5720 5721 5721 5722 5722 5723 5723 5723
5701 5698 5695 5697 5700 5697 5700 5696 5696 5694 5691 5690 5696 5689 5694 5693 5692 5691 5692 5689 5690 5692 5695 5696 5694 5695 5698 5697 5698 5700 5701 5702 5704 5704 5706 5707 5709 5710 5711 5711 5711 5712 5711 5711
5686 5682 5679 5680 5683 5685 5688 5682 5680 5680 5679 5676 5689 5680 5683 5684 5681 5679 5674 5681 5682 5683 5685 5687 5687 5686 5689 5689 5689 5692 5693 5694 5694 5695 5696 5697 5698 5699 5700 5700 5701 5700 5699 5699
5668 5666 5668 5666 5667 5668 5670 5670 5669 5666 5664 5666 5679 5670 5675 5667 5667 5664 5664 5668 5671 5673 5674 5676 5677 5677 5676 5679 5680 5681 5682 5683 5685 5687 5687 5687 5689 5688 5688 5689 5689 5688 5688 5687
5654 5651 5652 5655 5653 5657 5659 5659 5658 5653 5655 5659 5658 5657 5662 5653 5652 5650 5651 5654 5657 5661 5662 5664 5666 5666 5666 5668 5670 5669 5670 5672 5672 5676 5678 5678 5679 5679 5678 5680 5679 5678 5677 5675
5636 5636 5635 5640 5638 5643 5645 5642 5645 5639 5642 5642 5640 5646 5644 5638 5636 5636 5638 5639 5643 5645 5648 5649 5650 5652 5654 5655 5656 5658 5658 5658 5659 5661 5664 5666 5666 5666 5667 5667 5667 5667 5666 5665
5622 5622 5620 5624 5626 5628 5630 5630 5632 5629 5626 5626 5631 5636 5636 5629 5619 5623 5622 5624 5627 5630 5633 5636 5637 5638 5639 5641 5642 5643 5644 5646 5647 5649 5650 5650 5651 5651 5652 5653 5654 5655 5654 5653
5606 5609 5610 5608 5611 5612 5614 5616 5618 5618 5617 5615 5619 5624 5613 5613 5609 5608 5607 5610 5612 5614 5617 5620 5622 5623 5626 5628 5629 5629 5630 5631 5632 5634 5637 5638 5638 5638 5637 5639 5641 5642 5641 5641
5589 5592 5595 5598 5595 5597 5600 5600 5603 5605 5602 5601 5601 5603 5602 5602 5599 5595 5596 5597 5598 5600 5603 5606 5608 5610 5612 5614 5615 5617 5619 5620 5621 5621 5622 5624 5623 5625 5624 5625 5626 5625 5627 5627
5575 5577 5579 5586 5588 5581 5585 5588 5588 5589 5587 5589 5587 5595 5593 5590 5586 5585 5587 5584 5583 5585 5588 5591 5594 5596 5598 5600 5602 5604 5606 5608 5608 5609 5609 5611 5611 5612 5613 5613 5613 5612 5613 5612
5564 5564 5565 5570 5572 5572 5569 5571 5574 5572 5571 5573 5571 5579 5579 5577 5575 5576 5570 5565 5570 5572 5573 5576 5578 5580 5582 5584 5586 5588 5591 5594 5595 5596 5597 5598 5599 5598 5600 5601 5600 5600 5600 5599
5550 5549 5550 5553 5553 5551 5553 5557 5559 5558 5557 5552 5563 5554 5565 5563 5560 5558 5556 5554 5559 5558 5558 5561 5563 5565 5568 5571 5573 5575 5578 5578 5580 5581 5583 5584 5586 5586 5587 5587 5587 5586 5586 5586
5537 5533 5534 5534 5535 5534 5534 5539 5541 5541 5543 5540 5539 5536 5556 5549 5541 5540 5541 5539 5543 5546 5545 5546 5547 5549 5553 5556 5559 5560 5562 5563 5564 5565 5565 5565 5567 5569 5571 5573 5573 5572 5573 5572
5527 5526 5523 5521 5523 5521 5517 5525 5524 5525 5525 5523 5519 5523 5539 5532 5527 5525 5519 5523 5523 5523 5526 5530 5536 5537 5538 5539 5542 5544 5547 5548 5550 5551 5552 5552 5553 5555 5555 5556 5557 5557 5557 5556
5514 5513 5512 5508 5510 5504 5511 5513 5512 5511 5509 5507 5505 5506 5513 5511 5509 5508 5510 5509 5505 5506 5508 5510 5515 5519 5523 5525 5525 5526 5528 5530 5533 5534 5535 5536 5538 5541 5541 5542 5543 5543 5542 5542
5501 5500 5498 5495 5494 5494 5498 5506 5502 5496 5493 5493 5492 5494 5491 5494 5494 5495 5509 5487 5493 5497 5494 5496 5497 5500 5504 5505 5506 5509 5511 5510 5511 5514 5515 5516 5520 5521 5521 5522 5522 5522 5524 5524
5491 5488 5487 5486 5481 5479 5488 5490 5489 5483 5473 5489 5481 5478 5479 5479 5477 5486 5484 5478 5483 5484 5484 5483 5482 5485 5484 5489 5490 5491 5493 5493 5493 5495 5495 5495 5499 5499 5499 5502 5503 5504 5504 5505
5481 5477 5475 5473 5469 5469 5476 5474 5472 5467 5472 5472 5469 5467 5466 5464 5465 5471 5466 5467 5469 5469 5472 5471 5469 5470 5471 5474 5476 5476 5478 5478 5478 5478 5477 5478 5479 5480 5480 5480 5482 5484 5485 5487
5471 5467 5465 5463 5460 5457 5468 5461 5461 5457 5452 5452 5450 5451 5451 5450 5452 5454 5453 5453 5454 5457 5458 5458 5456 5457 5458 5459 5460 5459 5462 5461 5461 5460 5460 5461 5461 5462 5462 5466 5468 5469 5471 5471
5457 5456 5453 5452 5448 5448 5447 5446 5446 5442 5438 5438 5436 5436 5435 5433 5438 5441 5441 5442 5444 5444 5445 5444 5445 5446 5448 5449 5449 5448 5449 5449 5448 5447 5448 5451 5450 5452 5452 5452 5456 5455 5453 5455
5442 5442 5439 5436 5439 5434 5433 5431 5429 5427 5424 5422 5420 5419 5420 5420 5425 5428 5430 5433 5434 5435 5435 5435 5435 5435 5437 5439 5440 5440 5440 5441 5442 5441 5440 5442 5444 5442 5444 5445 5444 5448 5447 5448
5430 5429 5429 5426 5429 5426 5424 5423 5421 5418 5415 5412 5409 5407 5405 5406 5412 5417 5421 5424 5424 5426 5426 5427 5427 5428 5429 5430 5432 5432 5432 5432 5432 5432 5433 5435 5435 5436 5436 5438 5440 5441 5442 5444
5424 5424 5424 5423 5423 5420 5418 5418 5415 5411 5408 5405 5401 5399 5399 5400 5403 5409 5414 5417 5418 5419 5420 5419 5419 5419 5420 5423 5424 5424 5424 5424 5423 5424 5425 5425 5427 5427 5430 5433 5434 5436 5436 5437
Wind_Speed
42 44 43 41 37 41 41 39 42 42 40 35 41 44 48 48 48 49 43 39 38 39 38 39 42 43 46 50 47 44 49 50 49 47 47 48 47 46 47 44 40 41 40 42
47 48 44 42 41 42 44 45 44 45 44 39 42 46 47 47 46 48 48 43 44 44 45 46 45 45 48 51 50 50 52 51 49 49 50 50 50 49 46 42 40 39 38 42
54 51 50 52 49 47 46 48 45 45 48 50 48 48 47 46 46 48 45 40 39 38 39 41 45 45 49 53 54 53 52 51 50 51 51 49 49 49 46 42 44 42 42 43
56 54 49 50 54 54 51 46 48 48 52 55 45 51 45 40 43 47 42 38 36 34 36 40 47 47 47 51 58 55 53 51 52 52 51 49 50 48 48 47 48 46 45 44
52 52 52 51 50 54 55 52 53 53 55 57 54 52 50 45 48 43 43 47 43 39 35 36 40 40 42 48 50 52 52 52 51 52 50 51 50 50 50 51 51 55 46 45
59 53 55 59 57 55 52 56 57 58 60 62 54 52 53 44 40 38 55 45 40 40 37 35 35 37 35 41 46 46 48 48 49 48 49 50 50 51 53 55 55 48 49 48
60 56 57 55 58 56 56 55 47 58 59 64 53 48 49 41 51 56 58 50 43 41 41 36 33 37 37 38 41 41 43 44 45 46 48 48 48 53 56 53 59 53 53 52
55 54 59 58 51 54 52 50 51 56 56 54 56 54 50 58 61 60 61 58 55 47 47 45 45 44 44 44 44 43 45 45 46 46 48 49 51 52 56 55 54 58 57 58
57 56 55 53 52 50 51 49 51 49 47 52 31 32 40 42 52 55 52 55 54 52 48 47 44 45 46 47 48 49 52 52 51 48 49 50 56 58 59 58 58 56 59 60
58 57 54 55 51 49 49 52 49 50 51 55 55 57 46 57 51 50 63 66 66 64 61 56 54 53 51 51 52 53 53 51 50 51 50 51 52 54 56 59 59 62 65 65
57 57 55 54 51 50 50 50 48 51 51 52 53 47 50 51 55 54 57 61 57 57 56 55 55 52 45 47 51 55 57 57 57 59 57 54 56 56 57 60 62 65 67 64
56 57 54 51 52 51 50 50 46 47 50 54 52 56 50 53 54 57 55 54 59 59 55 54 54 53 47 45 46 48 50 49 51 53 55 54 55 56 60 62 63 65 66 67
52 55 55 53 48 52 52 47 49 53 61 59 56 42 50 40 35 52 58 62 59 51 50 52 50 52 50 50 51 53 51 48 47 46 50 51 53 55 58 60 62 64 65 66
50 52 53 54 53 45 48 50 57 58 59 62 72 69 61 64 67 61 52 40 51 52 52 51 51 51 46 43 43 46 48 49 52 50 49 51 53 57 57 56 58 60 64 67
53 54 54 56 58 58 59 62 63 65 68 70 64 68 62 68 69 69 70 67 67 55 49 54 53 54 56 50 52 50 60 64 62 61 58 54 53 53 53 54 55 56 58 59
50 53 46 56 56 57 60 64 68 69 70 74 77 81 69 70 76 78 72 71 67 64 71 68 59 55 55 57 59 60 61 58 59 58 57 57 56 55 54 52 48 49 51 51
36 38 37 38 38 38 41 58 57 65 68 63 52 69 74 80 81 79 79 81 78 73 71 65 62 62 59 61 63 62 59 59 58 58 59 60 59 59 59 55 54 53 53 53
40 36 37 41 40 45 43 40 47 46 42 42 42 59 72 69 70 68 63 71 69 62 66 68 71 71 69 65 63 62 64 66 63 65 66 65 66 65 63 62 62 63 60 57
43 45 42 46 46 46 46 40 43 43 43 42 47 38 46 57 58 58 54 57 57 56 56 64 61 58 59 60 61 61 65 67 66 67 67 68 69 64 58 55 53 55 55 55
43 51 49 49 53 53 46 44 32 34 41 35 35 33 39 40 46 53 49 51 55 56 50 50 62 60 56 53 55 56 60 61 60 65 63 61 62 53 52 51 50 50 56 57
32 35 36 36 40 42 38 36 36 42 43 37 37 37 36 46 43 42 44 42 40 45 45 48 50 50 52 51 48 49 49 50 53 52 51 57 54 53 52 50 48 52 58 60
34 38 39 39 40 43 32 37 35 36 36 42 42 37 36 48 42 40 40 41 44 43 41 46 48 47 47 47 45 41 38 41 41 42 41 39 41 42 46 44 49 55 56 63
36 36 35 37 40 40 40 41 39 43 48 48 48 42 45 53 45 39 37 38 39 38 39 41 43 43 35 34 33 36 33 32 28 32 33 33 37 39 37 47 47 44 48 43
42 35 38 41 39 38 36 32 33 36 39 38 39 41 49 51 42 38 34 33 33 32 32 32 34 31 30 31 30 28 31 31 18 26 31 27 16 21 20 13 25 19 13 11
23 22 23 25 15 21 23 26 30 32 33 35 36 34 31 33 34 33 27 26 25 22 28 33 34 31 30 27 25 27 26 18 17 14 21 20 20 23 24 26 24 19 15 17
10 11 16 18 20 24 26 27 26 31 32 31 26 23 21 23 25 27 24 22 22 17 19 21 27 29 31 27 25 25 25 19 18 24 17 18 21 24 26 20 19 19 20 22
Wind_Direction
277 271 275 284 280 276 275 274 274 276 281 272 275 276 273 270 266 269 266 261 263 267 264 257 256 253 255 255 252 257 261 262 263 266 267 269 270 272 272 276 275 275 276 273
277 278 279 273 273 274 277 277 277 279 277 269 271 273 275 274 267 266 268 266 266 268 264 258 253 252 251 254 252 251 253 258 261 263 266 267 267 269 272 275 275 273 271 272
278 280 276 275 274 272 273 273 273 277 274 273 271 272 275 274 273 266 268 269 266 265 258 254 255 253 253 254 254 252 252 254 258 259 260 261 265 266 269 270 270 268 269 272
279 275 273 270 272 274 270 269 269 268 270 273 271 274 270 268 270 274 273 269 264 263 260 254 258 257 258 257 255 251 250 253 253 253 254 257 260 264 262 262 264 267 269 271
276 272 269 267 267 265 270 265 265 265 265 267 272 271 276 272 271 272 272 264 261 265 268 267 266 263 255 256 256 250 249 249 249 252 251 251 255 257 258 261 263 264 264 269
276 269 265 267 266 266 262 263 265 265 264 263 270 269 272 276 267 258 271 270 264 265 260 258 258 261 255 253 254 258 258 255 254 253 254 250 250 252 256 266 267 265 267 271
272 273 269 265 264 258 257 255 263 263 262 265 269 271 272 266 268 269 271 270 267 263 258 254 254 251 255 248 250 254 255 256 256 255 253 253 252 253 255 262 264 266 265 268
272 267 266 268 257 261 260 260 261 260 259 269 266 265 262 260 262 266 268 268 265 259 258 258 262 263 264 253 248 249 250 251 252 252 251 253 254 258 259 261 260 266 263 266
272 268 267 266 263 256 252 255 254 256 256 248 229 237 242 237 245 251 255 263 267 268 266 265 260 259 261 262 257 255 252 247 245 246 247 250 251 255 260 261 260 260 264 267
273 270 267 267 261 257 252 253 258 265 271 262 253 254 264 257 258 254 260 263 266 269 269 268 265 264 265 262 258 255 255 255 256 255 253 256 256 257 258 262 263 264 267 270
270 266 264 262 260 258 259 256 255 258 259 264 268 261 254 250 251 256 256 263 264 264 267 266 266 266 261 253 252 254 253 252 250 256 257 254 255 256 260 260 260 263 267 270
265 265 264 262 260 261 257 254 251 256 255 244 247 245 255 262 263 261 256 261 263 265 264 263 263 262 259 249 247 250 249 251 256 257 255 249 255 257 257 259 263 264 264 267
266 265 264 262 262 257 255 256 255 250 248 250 252 249 254 241 254 247 252 249 254 256 264 264 259 257 256 255 255 260 261 262 261 259 262 263 264 262 262 264 265 267 269 271
265 266 266 264 264 253 252 252 251 253 251 251 250 251 252 258 265 265 264 253 237 246 248 246 252 258 257 264 263 256 255 259 275 275 272 269 264 261 263 264 266 267 267 269
269 269 269 267 265 264 261 255 255 255 256 258 252 258 249 256 261 267 267 267 264 260 242 236 238 239 240 239 236 245 268 277 280 281 280 277 273 268 267 269 268 266 267 269
276 278 277 272 271 269 266 263 262 261 259 259 257 258 253 259 262 265 265 267 267 267 266 262 262 263 263 264 267 271 273 274 277 280 280 280 279 279 278 278 277 273 276 278
268 267 268 267 268 269 265 271 269 266 265 269 273 266 249 254 261 266 273 270 272 274 267 262 262 264 267 267 267 270 271 270 271 273 275 275 276 278 280 280 280 281 279 279
268 265 264 265 261 259 265 266 269 275 274 270 269 269 263 264 267 268 271 274 277 280 281 281 277 274 275 277 279 280 279 277 279 280 279 280 279 278 278 277 278 276 277 278
271 267 265 263 264 267 267 275 277 276 274 265 269 269 262 265 266 266 271 267 271 274 277 281 283 281 280 282 283 283 283 284 285 284 285 283 283 284 282 280 275 275 274 269
265 262 264 268 270 273 278 279 273 264 262 278 273 274 274 269 266 262 257 261 269 271 271 275 278 283 281 280 281 281 282 282 282 283 284 284 284 277 273 270 264 261 257 260
268 270 269 265 268 268 277 275 271 265 275 267 264 265 264 268 267 263 261 261 262 264 266 265 271 273 276 278 277 276 276 276 278 278 273 276 275 271 264 258 251 248 250 251
267 267 266 271 273 273 280 276 275 279 271 268 264 263 263 266 261 259 257 256 262 265 261 259 266 268 273 277 278 276 276 278 276 268 267 257 253 250 253 262 250 251 258 255
266 269 272 267 272 278 274 274 271 265 267 270 269 263 255 257 261 259 260 261 263 268 266 265 268 264 266 273 270 268 266 268 269 254 249 241 276 245 260 244 250 260 247 249
273 269 268 271 277 280 282 279 275 277 281 285 283 276 265 263 259 258 258 263 262 262 266 268 265 258 257 259 264 266 277 254 258 264 260 240 236 232 235 240 226 230 237 255
275 263 271 275 299 287 279 281 283 287 289 288 287 286 275 259 249 253 252 256 258 266 271 266 262 262 257 255 258 259 261 251 269 234 253 247 243 258 260 273 272 266 270 264
268 265 266 270 270 274 284 286 284 288 290 294 294 283 274 259 244 244 241 254 259 252 268 270 264 262 253 254 259 263 270 277 261 261 258 275 271 276 276 275 281 281 279 271